1491174000.11,11844,16.13,74152.5,-2.01,-27.99,-28.21,0,*57
1491174001.35,11845,16.13,74154.8,-2.01,-28.05,-28.31,0,*5D
1491174002.61,11846,16.13,74152.8,-2.01,-27.99,-28.21,0,*55
1491174003.86,11847,16.13,74156.3,-2.01,-28.05,-28.47,0,*5E
1491174005.13,11848,16.13,74152.5,-1.99,-28.05,-28.37,0,*54
1491174006.36,11849,16.13,74154.8,-2.01,-28.05,-28.37,0,*57
1491174007.59,11850,16.13,74154.3,-2.01,-27.99,-28.31,0,*53
1491174008.8,11851,16.13,74154.5,-2.01,-27.93,-28.31,0,*58
1491174010.08,11852,16.13,74154.8,-1.99,-27.83,-27.99,0,*55
1491174011.31,11853,16.13,74158.8,-1.99,-27.77,-27.93,0,*55
1491174012.57,11854,16.13,74154.8,-1.99,-27.67,-27.83,0,*52
1491174013.82,11855,16.13,74152.0,-2.01,-27.83,-27.99,0,*50
1491174015.08,11856,16.13,74154.0,-1.99,-27.83,-28.15,0,*5A
1491174016.29,11857,16.13,74156.3,-2.01,-27.93,-28.31,0,*5E
1491174017.52,11858,16.13,74158.3,-2.01,-27.83,-28.15,0,*56
1491174018.78,11859,16.13,74152.5,-1.99,-27.99,-28.31,0,*58
1491174020.02,11860,16.13,74152.5,-2.01,-28.05,-28.31,0,*5A
1491174021.28,11861,16.13,74158.5,-1.99,-28.05,-28.37,0,*5F
1491174022.54,11862,16.13,74152.8,-1.99,-28.05,-28.37,0,*5C
1491174023.79,11863,16.13,74158.3,-1.99,-27.99,-28.37,0,*57
1491174025.05,11864,16.13,74156.3,-1.99,-28.37,-28.47,0,*5C
1491174026.31,11865,16.13,74156.5,-1.99,-28.21,-28.37,0,*5D
1491174027.57,11866,16.13,74158.5,-1.99,-28.37,-28.47,0,*5E
1491174028.8,11867,16.13,74158.5,-1.99,-28.53,-28.69,0,*51
1491174030.04,11868,16.13,74158.8,-1.99,-28.53,-28.85,0,*5C
1491174031.26,11869,16.13,74158.3,-2.01,-28.47,-28.69,0,*58
1491174032.47,11870,16.13,74158.3,-2.01,-28.37,-28.53,0,*5E
1491174033.7,11871,16.13,74160.5,-2.01,-28.31,-28.63,0,*5A
1491174034.97,11872,16.13,74162.0,-1.99,-28.37,-28.63,0,*5D
1491174036.2,11873,16.13,74158.5,-2.01,-28.37,-28.63,0,*5E
1491174037.44,11874,16.13,74158.0,-2.01,-28.37,-28.63,0,*59
1491174038.68,11875,16.13,74158.8,-2.01,-28.37,-28.63,0,*58
1491174039.91,11876,16.13,74156.5,-2.01,-28.37,-28.63,0,*5B
1491174041.14,11877,16.13,74158.5,-2.01,-28.53,-28.79,0,*53
1491174042.38,11878,16.13,74158.3,-2.01,-28.47,-28.79,0,*59
1491174043.64,11879,16.13,74156.3,-2.07,-28.43,-28.69,0,*5B
1491174044.88,11880,16.13,74158.3,-2.05,-28.59,-28.69,0,*54
1491174046.11,11881,16.13,74156.5,-2.05,-28.37,-28.59,0,*5E
1491174047.35,11882,16.13,74156.8,-2.05,-28.25,-28.53,0,*54
1491174048.61,11883,16.13,74156.0,-2.05,-28.21,-28.43,0,*50
1491174049.82,11884,16.13,74156.3,-2.05,-28.37,-28.69,0,*58
1491174051.09,11885,16.13,74156.0,-2.07,-28.37,-28.59,0,*58
1491174052.35,11886,16.13,74154.8,-2.05,-28.25,-28.43,0,*51
1491174053.61,11887,16.13,74154.5,-2.05,-28.05,-28.43,0,*52
1491174054.87,11888,16.13,74156.8,-2.07,-28.21,-28.53,0,*58
1491174056.11,11889,16.06,74150.8,-2.05,-28.37,-28.59,0,*56
1491174057.35,11890,16.13,74158.0,-2.05,-28.37,-28.59,0,*5E
1491174058.6,11891,16.13,74156.8,-2.07,-28.43,-28.69,0,*5D
1491174059.84,11892,16.13,74154.8,-2.05,-28.59,-28.85,0,*55
1491174061.07,11893,16.13,74156.0,-2.05,-28.53,-28.75,0,*51
1491174062.33,11894,16.13,74154.3,-2.07,-28.53,-28.75,0,*54
1491174063.59,11895,16.13,74154.3,-2.07,-28.53,-28.75,0,*55
1491174064.84,11896,16.13,74156.0,-2.09,-28.47,-28.91,0,*57
1491174066.1,11897,16.13,74158.3,-2.07,-28.53,-28.75,0,*57
1491174067.35,11898,16.13,74156.0,-2.09,-28.63,-28.91,0,*5F
1491174068.62,11899,16.13,74156.8,-2.07,-28.37,-28.59,0,*55
1491174069.88,11900,16.13,74156.3,-2.07,-28.53,-28.75,0,*58
1491174071.13,11901,16.13,74154.0,-2.09,-28.59,-28.79,0,*51
1491174072.38,11902,16.13,74156.5,-2.09,-28.43,-28.91,0,*5F
1491174073.63,11903,16.13,74152.3,-2.09,-28.47,-28.63,0,*57
1491174074.91,11904,16.13,74160.0,-2.11,-28.59,-28.79,0,*5D
1491174076.17,11905,16.13,74156.8,-2.11,-28.31,-28.63,0,*59
1491174077.44,11906,16.13,74154.5,-2.11,-28.43,-28.75,0,*58
1491174078.7,11907,16.13,74152.3,-2.09,-28.59,-28.91,0,*51
1491174079.98,11908,16.13,74154.8,-2.11,-28.59,-28.79,0,*51
1491174081.26,11909,16.13,74152.3,-2.11,-28.59,-28.75,0,*5C
1491174082.54,11910,16.13,74156.3,-2.11,-28.25,-28.47,0,*5E
1491174083.79,11911,16.13,74158.8,-2.09,-28.47,-28.63,0,*54
1491174085.05,11912,16.13,74152.8,-2.09,-28.59,-28.91,0,*55
1491174086.31,11913,16.13,74158.3,-2.09,-28.63,-28.91,0,*5D
1491174087.58,11914,16.13,74156.0,-2.11,-28.43,-28.75,0,*5B
1491174088.85,11915,16.13,74158.8,-2.11,-28.47,-28.75,0,*5E
1491174090.08,11916,16.13,74154.5,-2.09,-28.15,-28.47,0,*52
1491174091.37,11917,16.13,74158.0,-2.11,-28.25,-28.63,0,*5F
1491174092.63,11918,16.13,74154.0,-2.11,-28.31,-28.59,0,*5C
1491174093.88,11919,16.13,74152.8,-2.09,-28.25,-28.47,0,*5E
1491174095.14,11920,16.13,74152.8,-2.13,-28.21,-28.53,0,*5E
1491174096.4,11921,16.13,74154.8,-2.13,-27.99,-28.37,0,*51
1491174097.68,11922,16.13,74156.3,-2.11,-28.05,-28.43,0,*59
1491174098.96,11923,16.13,74152.8,-2.11,-28.05,-28.43,0,*58
1491174100.25,11924,16.13,74154.0,-2.11,-28.25,-28.59,0,*56
1491174101.5,11925,16.13,74158.3,-2.11,-28.31,-28.75,0,*5C
1491174102.77,11926,16.13,74154.5,-2.11,-28.43,-28.75,0,*5A
1491174104.03,11927,16.13,74156.8,-2.11,-28.31,-28.59,0,*50
1491174105.28,11928,16.13,74154.0,-2.11,-28.15,-28.47,0,*56
1491174106.54,11929,16.13,74154.5,-2.11,-28.15,-28.59,0,*58
1491174107.83,11930,16.13,74156.3,-2.11,-28.43,-28.63,0,*5A
1491174109.11,11931,16.13,74152.8,-2.11,-28.25,-28.59,0,*52
1491174110.37,11932,16.13,74154.5,-2.11,-28.31,-28.63,0,*5D
1491174111.63,11933,16.13,74156.5,-2.13,-28.31,-28.63,0,*5E
1491174112.89,11934,16.13,74156.3,-2.11,-28.15,-28.59,0,*54
1491174114.16,11935,16.13,74156.8,-2.11,-28.43,-28.75,0,*58
1491174115.42,11936,16.13,74154.8,-2.13,-28.53,-28.79,0,*54
1491174116.69,11937,16.13,74156.0,-2.11,-28.43,-28.75,0,*5A
1491174117.94,11938,16.13,74152.8,-2.13,-28.15,-28.47,0,*55
1491174119.17,11939,16.13,74156.3,-2.13,-28.15,-28.37,0,*53
1491174120.45,11940,16.06,74152.0,-2.13,-27.99,-28.47,0,*51
1491174121.71,11941,16.06,74154.8,-2.15,-28.05,-28.43,0,*58
1491174122.96,11942,16.13,74158.5,-2.13,-28.15,-28.47,0,*58
1491174124.21,11943,16.13,74158.0,-2.13,-28.15,-28.47,0,*59
1491174125.47,11944,16.06,74154.0,-2.11,-27.93,-28.43,0,*59
1491174126.75,11945,16.13,74156.3,-2.11,-28.05,-28.43,0,*58
1491174128.03,11946,16.13,74158.8,-2.11,-28.09,-28.47,0,*53
1491174129.29,11947,16.13,74156.5,-2.11,-28.15,-28.59,0,*50
1491174130.57,11948,16.13,74154.5,-2.11,-28.25,-28.59,0,*5C
1491174131.83,11949,16.13,74156.8,-2.11,-28.15,-28.47,0,*51
1491174133.11,11950,16.13,74154.3,-2.11,-28.09,-28.43,0,*50
1491174134.39,11951,16.13,74158.0,-2.11,-28.05,-28.43,0,*5D
1491174135.67,11952,16.13,74154.5,-2.11,-28.05,-28.43,0,*5E
1491174136.94,11953,16.13,74156.5,-2.11,-28.05,-28.31,0,*5A
1491174138.2,11954,16.13,74154.5,-2.11,-27.93,-28.25,0,*58
1491174139.46,11955,16.13,74156.3,-2.11,-27.93,-28.25,0,*59
1491174140.7,11956,16.13,74156.8,-2.11,-27.93,-28.31,0,*5F
1491174141.96,11957,16.13,74158.8,-2.11,-27.93,-28.43,0,*5B
1491174143.24,11958,16.13,74156.3,-2.11,-28.05,-28.43,0,*54
1491174144.52,11959,16.13,74158.5,-2.11,-28.09,-28.47,0,*5D
1491174145.8,11960,16.13,74156.8,-2.11,-28.05,-28.43,0,*5F
1491174147.06,11961,16.13,74156.3,-2.11,-28.15,-28.43,0,*5F
1491174148.31,11962,16.13,74158.0,-2.11,-28.15,-28.59,0,*57
1491174149.57,11963,16.13,74156.0,-2.09,-28.09,-28.47,0,*5D
1491174150.85,11964,16.13,74158.8,-2.11,-28.09,-28.47,0,*53
1491174152.1,11965,16.13,74156.3,-2.13,-28.31,-28.63,0,*5D
1491174153.39,11966,16.13,74154.8,-2.11,-28.25,-28.59,0,*50
1491174154.68,11967,16.13,74158.3,-2.11,-28.25,-28.59,0,*51
1491174155.94,11968,16.13,74158.8,-2.11,-28.31,-28.63,0,*52
1491174157.19,11969,16.13,74156.3,-2.11,-28.31,-28.75,0,*54
1491174158.47,11970,16.13,74158.8,-2.11,-28.43,-28.63,0,*5E
1491174159.76,11971,16.13,74158.5,-2.11,-28.25,-28.63,0,*5F
1491174161.05,11972,16.13,74156.3,-2.11,-28.25,-28.47,0,*5A
1491174162.28,11973,16.13,74156.0,-2.13,-28.15,-28.53,0,*5F
1491174163.53,11974,16.13,74156.5,-2.13,-28.09,-28.37,0,*57
1491174164.81,11975,16.13,74158.3,-2.13,-28.09,-28.47,0,*51
1491174166.06,11976,16.13,74158.3,-2.13,-27.99,-28.53,0,*51
1491174167.32,11977,16.13,74158.0,-2.11,-28.15,-28.43,0,*58
1491174168.6,11978,16.13,74158.3,-2.11,-28.05,-28.43,0,*56
1491174169.88,11979,16.13,74156.0,-2.11,-28.09,-28.43,0,*5B
1491174171.14,11980,16.13,74156.3,-2.13,-28.21,-28.53,0,*54
1491174172.39,11981,16.13,74156.5,-2.11,-28.15,-28.47,0,*55
1491174173.65,11982,16.13,74156.0,-2.13,-28.21,-28.53,0,*56
1491174174.91,11983,16.13,74158.5,-2.11,-28.15,-28.47,0,*57
1491174176.19,11984,16.13,74156.3,-2.13,-28.21,-28.63,0,*53
1491174177.43,11985,16.13,74156.8,-2.13,-28.37,-28.69,0,*5F
1491174178.64,11986,16.13,74158.3,-2.15,-28.37,-28.69,0,*5A
1491174179.9,11987,16.13,74158.0,-2.13,-28.31,-28.63,0,*51
1491174181.13,11988,16.13,74156.5,-2.13,-28.15,-28.53,0,*5B
1491174182.39,11989,16.13,74160.0,-2.13,-28.21,-28.53,0,*5D
1491174183.62,11990,16.13,74158.0,-2.13,-28.15,-28.53,0,*52
1491174184.84,11991,16.06,74154.8,-2.13,-28.15,-28.53,0,*53
1491174186.11,11992,16.13,74156.0,-2.15,-28.05,-28.43,0,*56
1491174187.36,11993,16.13,74156.3,-2.13,-27.99,-28.31,0,*5E
1491174188.62,11994,16.13,74156.5,-2.13,-28.15,-28.47,0,*53
1491174189.9,11995,16.13,74158.3,-2.11,-28.09,-28.43,0,*59
1491174191.18,11996,16.13,74156.3,-2.11,-28.05,-28.43,0,*56
1491174192.43,11997,16.13,74156.0,-2.11,-28.15,-28.47,0,*52
1491174193.72,11998,16.13,74158.0,-2.11,-28.05,-28.47,0,*5C
1491174194.97,11999,16.13,74156.3,-2.11,-28.15,-28.43,0,*58
1491174196.2,12000,16.13,74156.5,-2.13,-28.31,-28.53,0,*57
1491174197.49,12001,16.13,74156.0,-2.13,-28.21,-28.63,0,*54
1491174198.72,12002,16.13,74156.5,-2.13,-28.31,-28.53,0,*55
1491174199.98,12003,16.13,74156.0,-2.13,-28.21,-28.53,0,*55
1491174201.25,12004,16.13,74156.0,-2.13,-28.47,-28.79,0,*5A
1491174202.5,12005,16.13,74158.3,-2.13,-28.47,-28.85,0,*58
1491174203.77,12006,16.13,74158.3,-2.13,-28.47,-28.79,0,*58
1491174204.99,12007,16.13,74158.3,-2.15,-28.53,-28.85,0,*59
1491174206.25,12008,16.13,74156.3,-2.13,-28.21,-28.53,0,*5E
1491174207.48,12009,16.13,74156.3,-2.13,-28.37,-28.69,0,*51
1491174208.71,12010,16.13,74156.5,-2.15,-28.43,-28.69,0,*5C
1491174209.94,12011,16.13,74158.0,-2.13,-28.31,-28.69,0,*5E
1491174211.2,12012,16.13,74156.3,-2.13,-28.31,-28.63,0,*57
1491174212.44,12013,16.13,74160.3,-2.15,-28.37,-28.59,0,*5F
1491174213.67,12014,16.13,74156.3,-2.15,-28.21,-28.53,0,*55
1491174214.93,12015,16.13,74156.8,-2.13,-27.99,-28.31,0,*5A
1491174216.2,12016,16.13,74158.8,-2.15,-28.21,-28.59,0,*5D
1491174217.46,12017,16.06,74156.0,-2.15,-28.21,-28.59,0,*5C
1491174218.67,12018,16.13,74158.5,-2.15,-28.15,-28.53,0,*5E
1491174219.94,12019,16.13,74158.8,-2.15,-28.05,-28.43,0,*5F
1491174221.2,12020,16.13,74158.8,-2.15,-28.05,-28.21,0,*51
1491174222.43,12021,16.13,74158.0,-2.15,-27.99,-28.37,0,*5D
1491174223.67,12022,16.13,74158.3,-2.15,-28.15,-28.43,0,*56
1491174224.92,12023,16.13,74156.8,-2.13,-28.15,-28.47,0,*55
1491174226.15,12024,16.13,74158.8,-2.15,-28.15,-28.43,0,*50
1491174227.39,12025,16.06,74156.8,-2.15,-28.25,-28.69,0,*5A
1491174228.62,12026,16.13,74156.8,-2.15,-28.15,-28.43,0,*52
1491174229.86,12027,16.13,74156.3,-2.15,-28.25,-28.53,0,*51
1491174231.11,12028,16.13,74156.5,-2.13,-27.99,-28.37,0,*52
1491174232.32,12029,16.13,74158.8,-2.15,-28.15,-28.53,0,*5C
1491174233.53,12030,16.13,74156.3,-2.15,-28.15,-28.53,0,*54
1491174234.79,12031,16.13,74158.0,-2.15,-28.05,-28.43,0,*55
1491174236.06,12032,16.13,74158.0,-2.15,-28.05,-28.21,0,*52
1491174237.33,12033,16.13,74154.8,-2.13,-27.83,-27.99,0,*58
1491174238.55,12034,16.13,74158.3,-2.15,-27.89,-28.15,0,*58
1491174239.83,12035,16.13,74156.5,-2.13,-27.83,-27.99,0,*5E
1491174241.04,12036,16.13,74158.8,-2.15,-27.89,-28.15,0,*5A
1491174242.28,12037,16.13,74158.8,-2.13,-27.93,-28.31,0,*50
1491174243.51,12038,16.13,74156.0,-2.15,-28.15,-28.43,0,*5D
1491174244.74,12039,16.13,74158.8,-2.15,-28.25,-28.69,0,*57
1491174246.0,12040,16.13,74158.3,-2.13,-28.31,-28.63,0,*50
1491174247.26,12041,16.13,74162.5,-2.13,-28.21,-28.53,0,*53
1491174248.5,12042,16.13,74156.3,-2.13,-28.37,-28.69,0,*5E
1491174249.73,12043,16.06,74154.5,-2.15,-28.53,-28.91,0,*5C
1491174250.97,12044,16.13,74160.0,-2.15,-28.37,-28.75,0,*53
1491174252.18,12045,16.13,74156.5,-2.15,-28.37,-28.69,0,*5F
1491174253.42,12046,16.13,74158.5,-2.15,-28.25,-28.69,0,*5F
1491174254.7,12047,16.06,74158.5,-2.17,-28.21,-28.59,0,*5B
1491174255.96,12048,16.13,74156.8,-2.17,-28.21,-28.53,0,*5E
1491174257.22,12049,16.13,74156.3,-2.19,-28.25,-28.59,0,*5F
1491174258.43,12050,16.13,74156.3,-2.15,-28.37,-28.69,0,*5B
1491174259.66,12051,16.13,74158.8,-2.17,-28.37,-28.69,0,*58
1491174260.9,12052,16.13,74158.3,-2.19,-28.37,-28.59,0,*56
1491174262.18,12053,16.13,74156.0,-2.17,-28.25,-28.59,0,*5A
1491174263.47,12054,16.13,74156.0,-2.17,-28.25,-28.59,0,*5D
1491174264.7,12055,16.13,74158.8,-2.19,-28.31,-28.63,0,*5E
1491174265.96,12056,16.13,74156.0,-2.17,-28.21,-28.53,0,*51
1491174267.22,12057,16.06,74156.0,-2.19,-28.25,-28.59,0,*50
1491174268.47,12058,16.13,74156.5,-2.19,-28.25,-28.59,0,*5F
1491174269.7,12059,16.13,74156.0,-2.19,-28.31,-28.59,0,*5B
1491174270.95,12060,16.13,74158.5,-2.19,-28.59,-28.79,0,*5D
1491174272.2,12061,16.13,74160.5,-2.19,-28.59,-28.79,0,*5C
1491174273.44,12062,16.13,74156.0,-2.19,-28.47,-28.79,0,*50
1491174274.69,12063,16.13,74158.0,-2.19,-28.47,-28.75,0,*5D
1491174275.95,12064,16.13,74156.8,-2.19,-28.25,-28.63,0,*59
1491174277.18,12065,16.13,74158.0,-2.19,-28.31,-28.59,0,*54
1491174278.44,12066,16.13,74156.3,-2.19,-28.21,-28.59,0,*56
1491174279.7,12067,16.13,74158.5,-2.19,-28.21,-28.59,0,*57
1491174280.95,12068,16.06,74154.8,-2.19,-28.09,-28.47,0,*5D
1491174282.2,12069,16.13,74156.3,-2.19,-28.09,-28.47,0,*5C
1491174283.45,12070,16.06,74158.5,-2.19,-28.09,-28.43,0,*50
1491174284.71,12071,16.13,74156.5,-2.19,-28.25,-28.47,0,*5B
1491174285.96,12072,16.13,74158.0,-2.19,-28.09,-28.47,0,*56
1491174287.21,12073,16.13,74158.0,-2.19,-28.09,-28.47,0,*57
1491174288.47,12074,16.13,74158.3,-2.19,-28.21,-28.59,0,*55
1491174289.75,12075,16.13,74156.0,-2.17,-28.21,-28.43,0,*51
1491174291.01,12076,16.13,74158.5,-2.19,-28.25,-28.47,0,*5C
1491174292.29,12077,16.13,74158.3,-2.21,-28.09,-28.43,0,*5C
1491174293.58,12078,16.13,74160.0,-2.21,-28.05,-28.21,0,*5B
1491174294.84,12079,16.13,74156.3,-2.19,-28.05,-28.25,0,*55
1491174296.09,12080,16.13,74156.0,-2.19,-28.09,-28.47,0,*5B
1491174297.36,12081,16.13,74156.0,-2.21,-27.93,-28.21,0,*5D
1491174298.65,12082,16.13,74156.5,-2.21,-28.05,-28.25,0,*5A
1491174299.93,12083,16.13,74158.3,-2.21,-28.09,-28.47,0,*53
1491174301.22,12084,16.06,74152.0,-2.21,-28.09,-28.25,0,*50
1491174302.5,12085,16.13,74156.3,-2.21,-28.09,-28.59,0,*5A
1491174303.79,12086,16.13,74158.0,-2.21,-28.21,-28.47,0,*5C
1491174305.07,12087,16.13,74156.3,-2.21,-28.09,-28.43,0,*53
1491174306.36,12088,16.06,74152.8,-2.21,-28.21,-28.47,0,*52
1491174307.64,12089,16.13,74156.5,-2.21,-28.09,-28.25,0,*5D
1491174308.91,12090,16.06,74154.8,-2.21,-27.93,-28.21,0,*5D
1491174310.19,12091,16.13,74158.3,-2.21,-28.05,-28.09,0,*56
1491174311.46,12092,16.13,74156.5,-2.19,-28.05,-28.21,0,*54
1491174312.72,12093,16.13,74158.8,-2.19,-28.05,-28.25,0,*51
1491174313.98,12094,16.13,74158.8,-2.19,-28.05,-28.25,0,*56
1491174315.24,12095,16.06,74152.8,-2.19,-28.05,-28.25,0,*57
1491174316.49,12096,16.13,74156.5,-2.19,-28.05,-28.43,0,*54
1491174317.75,12097,16.13,74158.5,-2.19,-28.21,-28.43,0,*53
1491174319.03,12098,16.13,74156.5,-2.21,-28.09,-28.43,0,*5D
1491174320.3,12099,16.06,74154.8,-2.23,-28.09,-28.25,0,*5E
1491174321.55,12100,16.06,74156.0,-2.19,-28.09,-28.25,0,*56
1491174322.81,12101,16.06,74154.5,-2.19,-28.05,-28.09,0,*55
1491174324.07,12102,16.13,74156.0,-2.19,-28.05,-28.25,0,*58
1491174325.33,12103,16.13,74158.8,-2.19,-28.21,-28.47,0,*5B
1491174326.61,12104,16.13,74156.3,-2.17,-28.05,-28.43,0,*50
1491174327.87,12105,16.13,74156.5,-2.19,-28.21,-28.59,0,*52
1491174329.12,12106,16.06,74152.8,-2.19,-28.21,-28.47,0,*5E
1491174330.38,12107,16.06,74154.5,-2.19,-28.21,-28.59,0,*50
1491174331.67,12108,16.06,74158.5,-2.21,-28.25,-28.59,0,*50
1491174332.96,12109,16.13,74158.3,-2.21,-28.25,-28.59,0,*51
1491174334.24,12110,16.13,74156.0,-2.21,-28.43,-28.59,0,*59
1491174335.53,12111,16.06,74156.3,-2.21,-28.47,-28.63,0,*55
1491174336.81,12112,16.06,74156.3,-2.21,-28.25,-28.59,0,*5B
1491174338.1,12113,16.13,74156.0,-2.21,-28.09,-28.25,0,*5F
1491174339.32,12114,16.13,74158.8,-2.23,-28.15,-28.31,0,*52
1491174340.61,12115,16.13,74156.0,-2.21,-28.05,-28.21,0,*51
1491174341.89,12116,16.13,74158.8,-2.21,-28.09,-28.25,0,*5A
1491174343.15,12117,16.13,74156.3,-2.21,-27.93,-28.09,0,*59
1491174344.44,12118,16.06,74152.3,-2.21,-28.05,-28.05,0,*5A
1491174345.73,12119,16.06,74156.3,-2.21,-28.05,-28.43,0,*59
1491174347.02,12120,16.06,74154.3,-2.21,-28.21,-28.43,0,*55
1491174348.3,12121,16.13,74158.5,-2.21,-28.25,-28.47,0,*54
1491174349.56,12122,16.06,74152.8,-2.23,-28.25,-28.47,0,*55
1491174350.77,12123,16.06,74154.8,-2.23,-28.31,-28.53,0,*54
1491174352.06,12124,16.06,74156.3,-2.21,-28.25,-28.47,0,*51
1491174353.29,12125,16.06,74156.3,-2.23,-28.31,-28.63,0,*51
1491174354.58,12126,16.06,74158.3,-2.21,-28.25,-28.59,0,*5C
1491174355.82,12127,16.13,74160.0,-2.23,-28.15,-28.47,0,*53
1491174357.1,12128,16.06,74156.0,-2.21,-28.09,-28.43,0,*57
1491174358.37,12129,16.06,74158.8,-2.23,-28.25,-28.63,0,*58
1491174359.66,12130,16.13,74156.8,-2.21,-28.21,-28.63,0,*56
1491174360.87,12131,16.06,74156.8,-2.23,-28.15,-28.53,0,*51
1491174362.11,12132,16.06,74154.3,-2.23,-28.31,-28.63,0,*57
1491174363.34,12133,16.13,74160.3,-2.23,-28.31,-28.59,0,*5F
1491174364.58,12134,16.06,74156.8,-2.23,-28.25,-28.53,0,*57
1491174365.79,12135,16.13,74160.3,-2.23,-28.15,-28.31,0,*51
1491174367.03,12136,16.06,74152.5,-2.23,-28.31,-28.63,0,*53
1491174368.32,12137,16.06,74158.5,-2.21,-28.21,-28.43,0,*53
1491174369.53,12138,16.13,74158.5,-2.23,-28.15,-28.31,0,*5C
1491174370.8,12139,16.06,74154.8,-2.23,-28.25,-28.63,0,*59
1491174372.04,12140,16.13,74158.3,-2.23,-28.25,-28.53,0,*54
1491174373.28,12141,16.13,74158.8,-2.23,-28.15,-28.25,0,*57
1491174374.54,12142,16.13,74156.5,-2.23,-27.99,-27.99,0,*57
1491174375.78,12143,16.06,74154.8,-2.23,-27.93,-27.99,0,*5C
1491174376.99,12144,16.13,74158.3,-2.23,-27.77,-27.93,0,*5B
1491174378.23,12145,16.06,74158.3,-2.23,-27.93,-27.99,0,*5A
1491174379.49,12146,16.06,74152.3,-2.21,-27.93,-28.09,0,*5D
1491174380.72,12147,16.06,74156.8,-2.23,-28.15,-28.47,0,*55
1491174381.95,12148,16.06,74156.5,-2.23,-28.15,-28.47,0,*5A
1491174383.24,12149,16.06,74156.3,-2.21,-28.09,-28.21,0,*54
1491174384.47,12150,16.06,74156.3,-2.23,-28.15,-28.25,0,*57
1491174385.73,12151,16.06,74158.5,-2.21,-27.93,-28.09,0,*5B
1491174387.0,12152,16.06,74158.5,-2.23,-27.99,-27.99,0,*56
1491174388.29,12153,16.13,74160.8,-2.21,-28.05,-28.25,0,*57
1491174389.58,12154,16.13,74156.0,-2.21,-28.05,-28.25,0,*50
1491174390.82,12155,16.06,74158.0,-2.23,-28.09,-28.15,0,*5C
1491174392.11,12156,16.13,74156.3,-2.21,-28.05,-28.25,0,*52
1491174393.34,12157,16.13,74160.0,-2.23,-28.15,-28.47,0,*54
1491174394.6,12158,16.06,74158.8,-2.23,-28.25,-28.47,0,*58
1491174395.89,12159,16.06,74158.5,-2.21,-28.09,-28.25,0,*51
1491174397.1,12160,16.06,74156.0,-2.23,-28.37,-28.53,0,*55
1491174398.31,12161,16.06,74158.0,-2.23,-28.31,-28.53,0,*52
1491174399.58,12162,16.06,74152.5,-2.27,-28.25,-28.63,0,*53
1491174400.84,12163,16.06,74156.3,-2.27,-28.25,-28.47,0,*54
1491174402.05,12164,16.06,74156.5,-2.27,-28.15,-28.31,0,*51
1491174403.29,12165,16.06,74158.5,-2.23,-28.09,-28.15,0,*5F
1491174404.56,12166,16.06,74152.5,-2.23,-28.09,-28.25,0,*5F
1491174405.82,12167,16.06,74154.8,-2.23,-27.99,-28.25,0,*58
1491174407.08,12168,16.06,74156.3,-2.23,-27.99,-28.25,0,*57
1491174408.34,12169,16.06,74156.8,-2.23,-27.99,-28.09,0,*58
1491174409.58,12170,16.13,74160.0,-2.23,-27.93,-28.09,0,*5A
1491174410.82,12171,16.06,74154.0,-2.23,-27.99,-28.15,0,*5C
1491174412.08,12172,16.06,74152.0,-2.23,-28.09,-28.25,0,*5A
1491174413.32,12173,16.06,74156.0,-2.23,-28.09,-28.31,0,*5E
1491174414.56,12174,16.06,74152.3,-2.23,-28.15,-28.47,0,*55
1491174415.8,12175,16.06,74152.8,-2.23,-28.37,-28.63,0,*52
1491174417.03,12176,16.06,74154.0,-2.27,-28.15,-28.47,0,*53
1491174418.27,12177,16.06,74154.3,-2.23,-28.31,-28.63,0,*56
1491174419.51,12178,16.06,74152.8,-2.27,-28.31,-28.63,0,*5D
1491174420.74,12179,16.06,74152.3,-2.27,-28.31,-28.63,0,*5C
1491174421.98,12180,16.06,74156.0,-2.27,-28.25,-28.53,0,*5C
1491174423.2,12181,16.06,74154.5,-2.27,-28.15,-28.31,0,*5A
1491174424.41,12182,16.13,74158.8,-2.27,-28.15,-28.31,0,*59
1491174425.67,12183,16.13,74160.3,-2.27,-28.09,-28.09,0,*5E
1491174426.93,12184,16.06,74158.0,-2.27,-28.09,-28.25,0,*57
1491174428.18,12185,16.06,74156.3,-2.27,-28.09,-28.31,0,*53
1491174429.47,12186,16.06,74158.3,-2.29,-28.05,-28.21,0,*53
1491174430.7,12187,16.06,74156.5,-2.27,-27.99,-28.15,0,*51
1491174431.96,12188,16.13,74158.3,-2.27,-27.99,-28.09,0,*53
1491174433.23,12189,16.06,74152.5,-2.27,-27.99,-28.25,0,*5C
1491174434.46,12190,16.06,74158.5,-2.29,-28.15,-28.31,0,*54
1491174435.71,12191,16.06,74156.5,-2.27,-28.21,-28.31,0,*5C
1491174436.94,12192,16.06,74156.5,-2.23,-28.15,-28.25,0,*59
1491174438.21,12193,16.06,74156.5,-2.29,-27.89,-28.05,0,*5A
1491174439.46,12194,16.06,74156.8,-2.27,-27.83,-27.99,0,*53
1491174440.72,12195,16.06,74154.5,-2.27,-27.83,-27.83,0,*59
1491174441.96,12196,16.06,74156.3,-2.27,-28.09,-28.15,0,*57
1491174443.22,12197,16.13,74156.8,-2.27,-27.99,-27.99,0,*5B
1491174444.46,12198,16.06,74156.5,-2.27,-27.93,-27.99,0,*5E
1491174445.72,12199,16.06,74158.5,-2.23,-27.99,-27.99,0,*51
1491174446.99,12200,16.13,74162.3,-2.23,-28.09,-28.25,0,*5C
1491174448.27,12201,16.06,74158.8,-2.21,-28.05,-28.09,0,*5D
1491174449.54,12202,16.06,74158.8,-2.23,-27.99,-27.99,0,*50
1491174450.78,12203,16.06,74158.5,-2.23,-28.09,-28.15,0,*5C
1491174452.02,12204,16.06,74156.3,-2.23,-28.09,-28.31,0,*5D
1491174453.28,12205,16.13,74160.5,-2.23,-28.09,-28.47,0,*5D
1491174454.49,12206,16.13,74160.3,-2.23,-28.15,-28.31,0,*52
1491174455.75,12207,16.06,74158.8,-2.23,-28.25,-28.47,0,*51
1491174457.03,12208,16.06,74158.5,-2.21,-28.09,-28.47,0,*52
1491174458.29,12209,16.06,74156.5,-2.27,-28.25,-28.47,0,*5B
1491174459.51,12210,16.06,74156.3,-2.27,-28.15,-28.31,0,*51
1491174460.72,12211,16.06,74158.8,-2.27,-28.15,-28.31,0,*50
1491174461.95,12212,16.06,74156.3,-2.27,-28.15,-28.47,0,*52
1491174463.17,12213,16.06,74156.8,-2.27,-28.15,-28.31,0,*52
1491174464.38,12214,16.06,74158.0,-2.27,-28.15,-28.31,0,*55
1491174465.64,12215,16.13,74160.5,-2.29,-28.21,-28.37,0,*5B
1491174466.91,12216,16.06,74158.5,-2.27,-28.25,-28.25,0,*51
1491174468.15,12217,16.06,74160.0,-2.27,-28.09,-28.15,0,*5D
1491174469.39,12218,16.06,74158.8,-2.27,-27.93,-27.99,0,*55
1491174470.65,12219,16.06,74158.8,-2.27,-27.83,-27.99,0,*55
1491174471.88,12220,16.06,74158.8,-2.27,-27.93,-27.99,0,*5E
1491174473.12,12221,16.06,74158.0,-2.27,-27.93,-28.09,0,*59
1491174474.36,12222,16.06,74156.5,-2.27,-27.99,-28.15,0,*5D
1491174475.62,12223,16.06,74156.3,-2.23,-28.09,-28.25,0,*5D
1491174476.84,12224,16.06,74156.3,-2.23,-28.15,-28.31,0,*52
1491174478.1,12225,16.06,74156.5,-2.27,-28.09,-28.25,0,*5F
1491174479.34,12226,16.06,74158.5,-2.29,-28.15,-28.31,0,*5A
1491174480.6,12227,16.13,74160.3,-2.29,-28.31,-28.59,0,*53
1491174481.84,12228,16.06,74158.3,-2.27,-28.31,-28.63,0,*5B
1491174483.05,12229,16.06,74154.5,-2.27,-28.15,-28.31,0,*5B
1491174484.29,12230,16.06,74158.3,-2.27,-28.15,-28.25,0,*56
1491174485.55,12231,16.06,74156.5,-2.29,-28.31,-28.59,0,*54
1491174486.78,12232,16.06,74152.8,-2.29,-28.15,-28.37,0,*59
1491174488.02,12233,16.06,74154.3,-2.29,-28.15,-28.31,0,*5E
1491174489.27,12234,16.06,74156.5,-2.27,-28.09,-28.47,0,*5B
1491174490.54,12235,16.06,74154.5,-2.29,-28.21,-28.53,0,*5B
1491174491.83,12236,16.06,74158.3,-2.29,-28.21,-28.59,0,*52
1491174493.08,12237,16.06,74156.5,-2.29,-28.43,-28.69,0,*54
1491174494.34,12238,16.06,74156.0,-2.29,-28.53,-28.75,0,*57
1491174495.6,12239,16.06,74154.3,-2.29,-28.37,-28.59,0,*5A
1491174496.86,12240,16.06,74158.0,-2.29,-28.43,-28.69,0,*54
1491174498.11,12241,16.06,74158.3,-2.31,-28.43,-28.75,0,*51
1491174499.37,12242,16.06,74158.3,-2.31,-28.43,-28.75,0,*52
1491174500.61,12243,16.06,74154.8,-2.31,-28.37,-28.59,0,*5E